Location: Unspecified
(17.6330°N, 0.0000°E)
Time: 11:28:20
(UTC+00:00)

Explorer 7 - All Passes

Search period start: 25 June 2019 00:00
Search period end: 05 July 2019 00:00
Orbit: 485 x 680 km, 50.3° (Epoch: 24 June)

Date Brightness Start Highest point End Pass type
(mag) Time Alt. Az. Time Alt. Az. Time Alt. Az.
25 Jun - 05:30:34 10° SW 05:34:24 80° SE 05:38:29 10° NE daylight
25 Jun - 14:05:17 10° N 14:08:24 17° NE 14:11:31 10° E daylight
25 Jun - 15:44:23 10° NW 15:49:10 54° SW 15:53:54 10° SSE daylight
26 Jun - 05:35:46 10° WSW 05:39:28 45° NW 05:43:24 10° NNE daylight
26 Jun - 14:09:24 10° NNW 14:13:37 28° NE 14:17:51 10° ESE daylight
26 Jun - 15:49:57 10° WNW 15:54:08 28° SW 15:58:16 10° S daylight
27 Jun - 04:01:23 10° S 04:04:18 21° SE 04:07:18 10° ENE visible
27 Jun - 05:41:31 10° W 05:44:38 23° NW 05:47:53 10° N daylight
27 Jun - 14:14:00 10° NNW 14:18:44 52° NE 14:23:30 10° SE daylight
27 Jun - 15:56:20 10° W 15:59:03 15° SW 16:01:47 10° SSW daylight
28 Jun - 04:05:37 10° SSW 04:09:14 45° SE 04:13:01 10° NE visible
28 Jun - 05:48:16 10° WNW 05:49:54 12° NW 05:51:34 10° NNW daylight
28 Jun - 12:41:19 10° NNE 12:42:52 11° NE 12:44:24 10° ENE daylight
28 Jun - 14:18:55 10° NW 14:23:48 84° SW 14:28:42 10° SE daylight
29 Jun - 04:10:28 10° SW 04:14:15 78° NW 04:18:12 10° NE visible
29 Jun - 12:44:38 10° N 12:48:08 20° NE 12:51:41 10° E daylight
29 Jun - 14:24:11 10° NW 14:28:48 43° SW 14:33:26 10° SSE daylight
30 Jun - 02:37:32 10° SSE 02:39:10 12° SE 02:40:49 10° E visible
30 Jun - 04:15:51 10° WSW 04:19:20 34° NW 04:22:58 10° NNE visible
30 Jun - 12:48:56 10° NNW 12:53:19 34° NE 12:57:46 10° ESE daylight
30 Jun - 14:29:57 10° WNW 14:33:46 23° SW 14:37:35 10° S daylight
01 Jul - 02:40:55 10° S 02:44:05 26° SE 02:47:21 10° ENE visible
01 Jul - 04:21:52 10° W 04:24:31 18° NW 04:27:15 10° N visible
01 Jul - 12:53:38 10° NNW 12:58:24 64° NE 13:03:16 10° SE daylight
01 Jul - 14:36:57 10° WSW 14:38:42 12° SW 14:40:29 10° SW daylight
02 Jul - 02:45:23 10° SSW 02:49:04 60° SE 02:52:51 10° NE visible
02 Jul - 11:20:20 10° NNE 11:22:38 13° NE 11:24:59 10° ENE daylight
02 Jul - 12:58:40 10° NW 13:03:26 67° SW 13:08:19 10° SSE daylight
03 Jul - 02:50:25 10° SW 02:54:05 58° NW 02:57:53 10° NNE visible
03 Jul - 11:24:06 10° N 11:27:52 23° NE 11:31:43 10° E daylight
03 Jul - 13:04:05 10° WNW 13:08:26 34° SW 13:12:52 10° SSE daylight
04 Jul - 01:16:38 10° SSE 01:18:57 16° SE 01:21:18 10° E night (unlit)
04 Jul - 02:56:00 10° WSW 02:59:12 27° NW 03:02:31 10° NNE visible
04 Jul - 11:28:32 10° NNW 11:33:00 41° NE 11:37:36 10° ESE daylight
04 Jul - 13:10:05 10° W 13:13:24 18° SW 13:16:44 10° SSW daylight
